SCP
-0 -0 -0 -0 -0 -0 -0 -0 -0 -0 -0 0 0 0 -0 0 0 0 0 0 0 0 0 0 0 0 0 0 0 0 0 0 0 0 0 0 0 0 0 0 0 0 0
0 -0 -0 -0 -0 -0 -0 -0 -0 -0 -0 -0 -0 0 -0 0 0 0 0 0 0 0 0 0 0 0 0 0 0 0 0 0 0 0 0 0 0 0 0 0 0 0 0
-0 -0 -0 -0 -0 -0 -0 -0 -0 -0 -0 -0 0 0 0 0 0 0 0 0 0 0 0 0 0 0 0 0 0 0 0 0 0 0 0 0 0 0 0 0 0 0 0
-0 -0 -0 -0 -0 -0 -0 -0 -0 -0 -0 -0 -0 0 -0 -0 0 0 0 -0 -0 -0 0 0 0 0 0 0 0 0 0 1 1 0 0 0 0 0 0 0 0 0 0
-0 -0 -0 -0 -0 -0 -0 -0 -0 -0 -0 -0 -0 -0 0 0 0 0 0 -0 -0 -0 0 0 0 0 0 0 0 0 0 1 1 1 1 1 1 0 0 0 0 0 0
-0 -0 -0 -0 -0 -0 -0 -0 -0 -0 -0 -0 -0 -0 -0 0 0 0 0 -0 -0 -0 0 0 0 0 1 1 1 1 1 1 1 1 1 1 1 1 1 0 0 0 0
-0 -0 -0 -0 -0 -0 -0 -0 -0 -0 -0 -0 0 0 0 0 0 0 0 0 0 0 0 0 0 0 0 1 1 1 1 0 1 1 1 1 1 1 1 0 0 0 0
-0 -0 -0 -0 -0 -0 -0 -0 -0 0 0 0 0 0 0 0 0 0 0 0 0 0 0 0 1 1 1 1 1 1 2 2 1 1 1 1 1 1 2 1 1 0 0
0 0 0 0 0 0 -0 -0 0 0 0 0 0 0 0 0 1 1 1 1 1 1 0 0 1 1 1 1 1 1 2 2 3 3 3 2 2 2 2 1 0 0 0
0 0 0 0 0 0 0 0 0 0 0 1 1 1 1 1 1 1 1 1 1 1 0 1 1 1 1 1 2 2 2 2 3 3 3 3 3 2 2 2 1 1 -0
0 0 0 0 0 0 0 0 0 0 0 0 1 2 1 1 2 1 2 2 1 1 1 0 0 0 1 1 2 2 3 3 3 3 3 2 3 2 2 1 1 0 0
0 0 0 0 0 0 0 1 1 1 0 0 1 1 1 1 1 1 1 1 1 1 1 1 1 1 1 2 2 2 3 4 3 3 3 2 3 2 2 2 1 1 1
0 0 0 0 0 0 0 0 0 0 0 0 0 0 0 0 0 0 0 0 0 1 1 1 1 1 2 2 3 3 4 4 4 3 3 3 2 2 2 1 0 0 0
0 0 0 0 0 0 0 0 0 0 0 0 0 0 0 0 0 0 0 0 0 0 0 0 0 1 1 2 2 3 4 4 4 3 3 3 3 2 1 1 0 0 0
0 0 0 0 0 0 0 0 0 0 0 0 0 0 0 0 0 0 0 0 0 0 0 0 0 0 0 1 2 3 4 4 4 3 3 3 2 1 1 1 0 0 0
0 0 0 0 0 0 0 0 0 0 0 0 0 0 0 0 0 0 0 0 0 0 0 0 0 0 0 0 1 1 2 2 3 3 2 2 1 1 0 0 0 0 0
0 0 0 0 0 -0 0 0 0 0 0 0 0 0 0 0 0 0 0 0 0 0 0 0 0 0 0 0 0 1 1 2 2 2 2 2 1 1 0 0 0 0 0
0 0 0 0 0 0 0 0 0 0 0 0 0 0 0 0 0 0 0 0 0 0 0 0 0 0 0 0 0 0 0 1 1 2 1 1 1 0 0 0 0 0 0
0 0 0 0 0 0 0 0 0 0 0 0 0 0 0 0 0 0 0 0 0 0 0 0 0 0 0 0 0 0 0 1 1 1 1 1 0 0 0 0 0 0 0
0 0 0 0 0 0 0 0 0 0 0 0 0 0 0 0 0 0 0 0 0 0 0 0 0 0 0 0 0 0 0 1 1 1 1 0 0 0 0 0 0 0 0
0 0 0 0 0 0 0 0 0 0 0 0 0 0 0 0 0 0 0 0 0 0 0 0 0 0 0 0 0 0 0 0 1 0 0 0 0 0 0 0 0 0 0
0 0 0 0 0 0 0 0 0 0 0 0 0 0 0 0 0 0 0 0 0 0 0 0 0 0 0 0 0 0 0 0 0 0 0 0 0 0 0 0 0 0 0
0 0 0 0 0 0 0 0 0 0 0 0 0 0 0 0 0 0 0 0 0 0 0 0 0 0 0 0 0 0 0 0 0 0 0 0 0 0 0 0 0 0 0
0 0 0 0 0 0 0 0 0 0 0 0 0 0 0 0 0 0 0 0 0 0 0 0 0 0 0 0 0 0 0 0 0 0 0 0 0 0 0 0 0 0 0
0 0 0 0 0 0 0 0 0 0 0 0 0 0 0 0 0 0 0 -0 -0 -0 0 0 0 0 0 0 0 0 0 0 0 0 0 0 0 0 0 0 0 0 0
0 0 0 0 0 0 0 0 0 0 0 0 0 0 0 0 0 0 -0 -0 -0 -0 -0 0 0 0 0 0 0 0 0 0 0 0 0 0 0 0 0 0 0 0 0
Wind_Speed_500mb
79 81 80 79 77 75 71 67 65 62 58 57 54 53 51 46 47 48 48 43 37 28 30 31 30 24 24 27 37 35 31 31 35 30 36 36 34 27 20 25 24 22 24
79 83 87 86 84 81 80 75 71 67 62 60 54 51 41 39 45 52 58 59 50 41 36 32 29 30 31 29 30 37 36 35 28 32 36 30 36 19 18 23 19 19 15
84 87 89 92 88 87 85 82 77 71 65 60 60 57 51 51 44 44 51 53 54 53 47 42 30 27 34 33 30 36 41 44 39 37 34 19 12 30 27 24 15 16 20
84 84 87 92 94 95 85 82 79 76 69 66 63 63 58 54 47 41 40 40 44 42 41 35 34 38 41 47 46 39 42 47 51 43 43 42 42 41 29 24 25 32 21
88 88 91 92 91 90 93 84 81 80 75 69 66 64 62 54 42 36 34 39 38 38 41 44 47 50 52 53 59 55 51 50 54 54 52 50 48 46 47 57 45 33 31
87 85 87 86 90 89 91 87 83 82 78 72 68 65 61 50 48 41 40 42 42 40 39 41 46 47 52 54 55 65 62 61 61 59 59 59 59 55 49 54 59 55 47
83 86 87 86 87 92 91 92 86 79 78 75 70 65 59 51 49 46 43 45 45 45 44 45 50 54 53 52 54 54 54 52 55 57 61 61 62 60 63 61 61 64 63
72 79 85 83 86 90 90 90 87 79 75 72 66 68 60 55 48 48 48 47 46 45 43 49 55 60 61 61 65 69 70 64 61 61 62 67 66 58 48 64 56 62 70
66 78 76 74 83 89 86 85 84 74 71 66 66 62 60 53 50 50 50 50 51 53 55 60 65 69 70 65 62 63 53 53 56 61 64 66 70 60 51 51 40 52 66
54 69 71 73 72 76 74 73 75 70 65 62 63 63 61 52 45 43 48 50 52 57 54 55 59 62 61 56 61 64 66 65 64 62 62 60 64 63 52 51 49 56 72
49 47 51 61 54 54 55 57 61 69 70 65 60 64 63 56 54 51 50 51 52 53 58 52 53 54 57 56 56 56 58 61 61 60 59 59 60 60 61 57 53 56 61
51 48 45 46 43 44 44 43 49 54 57 52 50 50 51 48 46 46 49 52 53 45 47 52 55 56 57 55 57 59 60 60 60 55 62 61 64 64 68 65 68 55 58
51 49 46 45 46 39 37 39 38 43 42 35 32 36 39 42 44 46 49 49 55 51 53 54 61 62 61 60 60 61 61 64 67 62 61 61 62 64 75 63 63 60 61
61 64 60 53 47 42 38 33 28 24 26 29 31 32 34 35 40 43 49 52 55 59 61 66 67 66 67 71 71 68 66 61 61 63 66 63 61 59 69 70 62 59 57
67 66 61 48 34 25 33 30 27 25 22 22 21 25 30 37 45 51 53 56 58 63 68 72 75 77 78 77 73 71 70 70 68 64 67 68 67 63 67 70 67 61 55
73 61 38 30 20 3 16 28 23 20 18 19 23 26 30 36 42 48 54 59 64 68 71 75 79 83 84 84 80 71 70 68 74 74 71 67 65 66 65 68 49 45 43
79 66 36 46 54 36 26 16 16 15 17 21 23 27 33 38 43 48 53 57 60 64 67 69 70 72 72 74 78 75 71 68 69 70 69 65 63 66 63 61 43 41 36
66 65 64 41 14 57 36 12 9 10 14 17 21 26 32 38 43 48 52 56 60 63 67 69 68 70 69 68 68 59 67 69 65 66 63 60 62 63 67 53 40 35 35
65 55 38 36 46 36 21 11 9 6 9 15 22 28 33 38 43 47 51 54 58 61 64 66 65 63 66 60 54 47 56 57 58 58 59 57 57 55 48 33 37 39 34
51 55 52 49 38 25 8 4 4 9 15 19 23 27 32 37 39 44 49 53 54 56 58 56 49 50 50 45 47 45 42 46 51 48 47 47 47 50 48 38 43 36 33
59 53 44 31 16 7 1 5 9 14 16 19 23 28 31 33 36 39 41 46 46 46 45 43 40 40 42 40 40 36 32 35 36 40 39 43 46 53 52 46 44 32 36
43 30 20 12 6 5 7 12 10 9 14 18 21 23 27 29 31 33 35 41 39 33 34 33 34 36 36 35 32 29 27 25 26 32 36 42 48 54 50 50 40 38 41
36 22 11 8 2 9 8 7 7 10 14 15 16 20 23 24 28 33 36 39 43 39 35 34 36 37 34 37 30 22 19 26 26 32 36 39 36 68 61 53 50 42 39
31 25 20 10 5 3 4 4 3 6 10 13 17 23 28 32 38 41 45 46 47 53 54 48 47 42 39 38 34 28 26 27 25 20 21 27 37 65 65 61 63 48 39
32 26 18 13 8 6 6 9 12 18 20 23 28 33 40 41 43 45 46 47 49 46 43 48 48 50 53 53 48 32 31 19 5 4 5 11 16 19 10 33 48 44 39
33 28 20 15 11 9 9 13 18 17 14 18 22 26 29 37 43 45 44 41 40 37 34 31 33 34 39 47 42 37 25 18 20 19 23 24 24 34 38 29 23 34 36
Wind_Direction_500mb
212 213 214 221 225 226 228 224 221 222 219 220 221 224 231 234 234 240 244 248 249 251 255 259 261 267 283 258 250 265 274 286 301 291 305 305 302 292 291 318 307 313 306
218 216 218 219 224 229 229 228 226 226 224 225 231 233 241 245 252 247 244 245 248 250 255 259 259 262 272 273 264 258 263 270 284 289 304 314 312 292 295 307 322 313 294
221 220 218 220 221 226 228 229 230 230 229 232 231 234 237 243 246 244 241 241 243 248 253 262 263 267 270 275 275 267 265 273 277 276 281 294 278 298 306 304 296 318 298
221 226 225 223 224 225 227 230 231 232 231 232 233 234 238 243 251 255 246 235 233 235 239 244 258 268 273 272 275 274 274 274 277 276 274 279 275 277 295 292 294 295 287
220 223 225 224 224 226 229 229 230 232 232 233 235 236 239 249 256 256 248 228 223 235 249 256 264 272 280 279 279 281 277 276 279 277 277 277 273 269 267 284 291 288 287
220 226 229 230 230 228 229 232 230 232 232 234 236 239 244 250 248 247 242 231 234 243 250 259 265 272 280 290 291 282 277 276 271 274 275 272 266 268 265 271 283 288 286
217 224 227 228 228 228 228 230 231 232 233 234 237 241 247 251 252 250 248 247 245 248 255 262 267 272 277 279 283 286 285 280 276 271 265 270 269 266 266 271 278 283 289
217 224 228 230 232 231 228 228 231 233 235 236 239 242 248 252 254 256 257 257 260 262 264 264 270 274 279 281 283 282 279 275 273 278 274 267 270 268 271 278 277 284 285
219 228 230 234 235 234 233 229 230 234 239 240 240 246 250 254 262 266 268 265 267 269 271 273 276 280 284 281 281 283 276 279 274 272 275 266 264 270 264 259 275 290 282
208 223 228 233 235 237 236 234 233 230 238 239 242 247 253 256 263 269 273 277 280 281 283 279 274 275 280 277 281 276 277 278 278 277 272 271 264 267 266 255 262 262 267
166 180 202 215 221 224 230 230 229 227 233 238 242 247 252 256 259 266 274 277 278 279 281 279 274 270 274 276 277 275 283 281 285 273 273 272 267 263 263 258 259 258 257
144 147 160 175 188 202 205 215 223 227 234 241 245 250 252 250 250 255 259 266 275 277 271 274 275 277 279 279 277 278 279 280 284 283 274 275 270 266 259 261 260 266 259
140 143 147 159 174 180 183 198 208 219 226 231 232 231 236 239 244 253 257 262 271 273 274 280 281 280 281 282 284 283 284 285 279 279 280 275 272 268 260 258 260 258 258
127 125 126 133 144 149 158 172 179 187 204 205 211 217 225 241 258 264 266 268 274 279 282 281 282 285 286 286 286 283 281 281 280 279 275 274 271 265 261 264 258 255 260
126 123 117 109 99 125 148 157 167 172 188 203 215 245 258 264 268 271 274 279 283 286 288 289 289 289 288 287 286 285 281 277 275 272 272 271 266 258 261 259 255 251 259
125 118 114 122 138 18 178 164 171 190 209 233 248 258 265 272 276 283 288 289 290 292 294 294 294 293 292 290 286 281 279 277 272 271 270 272 266 256 259 262 243 247 256
152 152 154 139 115 266 261 198 195 216 241 254 267 281 290 295 297 297 298 299 298 298 298 298 298 297 296 292 285 278 273 273 272 272 271 270 264 253 255 254 240 246 242
148 145 155 168 203 208 225 219 235 257 276 288 297 305 308 309 309 311 310 311 310 308 308 307 306 304 303 302 296 281 269 270 274 272 270 268 262 253 256 243 235 229 235
152 151 158 171 176 194 213 221 246 278 306 320 320 318 317 319 321 320 321 322 319 317 314 313 310 308 308 307 305 290 283 271 272 268 268 266 255 254 250 243 225 219 221
152 153 161 169 178 183 169 230 299 333 342 338 333 335 341 339 337 334 330 327 324 321 321 324 320 316 316 318 306 297 283 279 274 271 266 260 251 245 243 226 220 212 202
151 153 153 156 152 107 26 307 357 348 349 351 352 350 350 347 343 342 341 340 334 331 336 333 334 327 320 318 312 311 294 282 274 266 264 259 250 245 248 211 203 199 192
152 156 156 151 130 57 345 347 342 358 5 359 354 355 355 355 356 358 355 354 347 343 340 338 337 337 331 331 328 329 323 303 285 282 281 269 255 241 230 195 182 183 184
164 167 178 162 127 312 327 350 19 20 6 3 5 4 360 358 360 1 5 14 21 10 0 352 347 344 343 346 332 334 332 337 315 314 282 285 256 211 208 190 181 183 183
167 171 187 217 242 268 313 326 61 63 57 51 48 45 37 32 36 31 25 20 19 24 22 18 14 6 355 351 341 355 352 352 329 326 337 257 219 206 208 192 171 174 176
186 192 201 212 228 248 200 156 131 112 97 82 76 54 50 50 46 35 29 29 23 19 24 22 19 19 22 17 9 2 354 360 356 321 80 143 138 98 153 174 156 144 148
190 196 204 214 199 186 186 177 152 129 106 87 74 64 54 51 46 40 32 28 26 21 21 32 31 40 39 35 25 21 18 55 68 88 89 97 101 100 112 132 105 127 146
Wind_Speed_850mb
79 81 80 79 77 75 71 67 65 62 58 57 54 53 51 46 47 48 48 43 37 28 30 31 30 24 24 27 37 35 31 31 35 30 36 36 34 27 20 25 24 22 24
79 83 87 86 84 81 80 75 71 67 62 60 54 51 41 39 45 52 58 59 50 41 36 32 29 30 31 29 30 37 36 35 28 32 36 30 36 19 18 23 19 19 15
84 87 89 92 88 87 85 82 77 71 65 60 60 57 51 51 44 44 51 53 54 53 47 42 30 27 34 33 30 36 41 44 39 37 34 19 12 30 27 24 15 16 20
84 84 87 92 94 95 85 82 79 76 69 66 63 63 58 54 47 41 40 40 44 42 41 35 34 38 41 47 46 39 42 47 51 43 43 42 42 41 29 24 25 32 21
88 88 91 92 91 90 93 84 81 80 75 69 66 64 62 54 42 36 34 39 38 38 41 44 47 50 52 53 59 55 51 50 54 54 52 50 48 46 47 57 45 33 31
87 85 87 86 90 89 91 87 83 82 78 72 68 65 61 50 48 41 40 42 42 40 39 41 46 47 52 54 55 65 62 61 61 59 59 59 59 55 49 54 59 55 47
83 86 87 86 87 92 91 92 86 79 78 75 70 65 59 51 49 46 43 45 45 45 44 45 50 54 53 52 54 54 54 52 55 57 61 61 62 60 63 61 61 64 63
72 79 85 83 86 90 90 90 87 79 75 72 66 68 60 55 48 48 48 47 46 45 43 49 55 60 61 61 65 69 70 64 61 61 62 67 66 58 48 64 56 62 70
66 78 76 74 83 89 86 85 84 74 71 66 66 62 60 53 50 50 50 50 51 53 55 60 65 69 70 65 62 63 53 53 56 61 64 66 70 60 51 51 40 52 66
54 69 71 73 72 76 74 73 75 70 65 62 63 63 61 52 45 43 48 50 52 57 54 55 59 62 61 56 61 64 66 65 64 62 62 60 64 63 52 51 49 56 72
49 47 51 61 54 54 55 57 61 69 70 65 60 64 63 56 54 51 50 51 52 53 58 52 53 54 57 56 56 56 58 61 61 60 59 59 60 60 61 57 53 56 61
51 48 45 46 43 44 44 43 49 54 57 52 50 50 51 48 46 46 49 52 53 45 47 52 55 56 57 55 57 59 60 60 60 55 62 61 64 64 68 65 68 55 58
51 49 46 45 46 39 37 39 38 43 42 35 32 36 39 42 44 46 49 49 55 51 53 54 61 62 61 60 60 61 61 64 67 62 61 61 62 64 75 63 63 60 61
61 64 60 53 47 42 38 33 28 24 26 29 31 32 34 35 40 43 49 52 55 59 61 66 67 66 67 71 71 68 66 61 61 63 66 63 61 59 69 70 62 59 57
67 66 61 48 34 25 33 30 27 25 22 22 21 25 30 37 45 51 53 56 58 63 68 72 75 77 78 77 73 71 70 70 68 64 67 68 67 63 67 70 67 61 55
73 61 38 30 20 3 16 28 23 20 18 19 23 26 30 36 42 48 54 59 64 68 71 75 79 83 84 84 80 71 70 68 74 74 71 67 65 66 65 68 49 45 43
79 66 36 46 54 36 26 16 16 15 17 21 23 27 33 38 43 48 53 57 60 64 67 69 70 72 72 74 78 75 71 68 69 70 69 65 63 66 63 61 43 41 36
66 65 64 41 14 57 36 12 9 10 14 17 21 26 32 38 43 48 52 56 60 63 67 69 68 70 69 68 68 59 67 69 65 66 63 60 62 63 67 53 40 35 35
65 55 38 36 46 36 21 11 9 6 9 15 22 28 33 38 43 47 51 54 58 61 64 66 65 63 66 60 54 47 56 57 58 58 59 57 57 55 48 33 37 39 34
51 55 52 49 38 25 8 4 4 9 15 19 23 27 32 37 39 44 49 53 54 56 58 56 49 50 50 45 47 45 42 46 51 48 47 47 47 50 48 38 43 36 33
59 53 44 31 16 7 1 5 9 14 16 19 23 28 31 33 36 39 41 46 46 46 45 43 40 40 42 40 40 36 32 35 36 40 39 43 46 53 52 46 44 32 36
43 30 20 12 6 5 7 12 10 9 14 18 21 23 27 29 31 33 35 41 39 33 34 33 34 36 36 35 32 29 27 25 26 32 36 42 48 54 50 50 40 38 41
36 22 11 8 2 9 8 7 7 10 14 15 16 20 23 24 28 33 36 39 43 39 35 34 36 37 34 37 30 22 19 26 26 32 36 39 36 68 61 53 50 42 39
31 25 20 10 5 3 4 4 3 6 10 13 17 23 28 32 38 41 45 46 47 53 54 48 47 42 39 38 34 28 26 27 25 20 21 27 37 65 65 61 63 48 39
32 26 18 13 8 6 6 9 12 18 20 23 28 33 40 41 43 45 46 47 49 46 43 48 48 50 53 53 48 32 31 19 5 4 5 11 16 19 10 33 48 44 39
33 28 20 15 11 9 9 13 18 17 14 18 22 26 29 37 43 45 44 41 40 37 34 31 33 34 39 47 42 37 25 18 20 19 23 24 24 34 38 29 23 34 36
Wind_Direction_850mb
212 213 214 221 225 226 228 224 221 222 219 220 221 224 231 234 234 240 244 248 249 251 255 259 261 267 283 258 250 265 274 286 301 291 305 305 302 292 291 318 307 313 306
218 216 218 219 224 229 229 228 226 226 224 225 231 233 241 245 252 247 244 245 248 250 255 259 259 262 272 273 264 258 263 270 284 289 304 314 312 292 295 307 322 313 294
221 220 218 220 221 226 228 229 230 230 229 232 231 234 237 243 246 244 241 241 243 248 253 262 263 267 270 275 275 267 265 273 277 276 281 294 278 298 306 304 296 318 298
221 226 225 223 224 225 227 230 231 232 231 232 233 234 238 243 251 255 246 235 233 235 239 244 258 268 273 272 275 274 274 274 277 276 274 279 275 277 295 292 294 295 287
220 223 225 224 224 226 229 229 230 232 232 233 235 236 239 249 256 256 248 228 223 235 249 256 264 272 280 279 279 281 277 276 279 277 277 277 273 269 267 284 291 288 287
220 226 229 230 230 228 229 232 230 232 232 234 236 239 244 250 248 247 242 231 234 243 250 259 265 272 280 290 291 282 277 276 271 274 275 272 266 268 265 271 283 288 286
217 224 227 228 228 228 228 230 231 232 233 234 237 241 247 251 252 250 248 247 245 248 255 262 267 272 277 279 283 286 285 280 276 271 265 270 269 266 266 271 278 283 289
217 224 228 230 232 231 228 228 231 233 235 236 239 242 248 252 254 256 257 257 260 262 264 264 270 274 279 281 283 282 279 275 273 278 274 267 270 268 271 278 277 284 285
219 228 230 234 235 234 233 229 230 234 239 240 240 246 250 254 262 266 268 265 267 269 271 273 276 280 284 281 281 283 276 279 274 272 275 266 264 270 264 259 275 290 282
208 223 228 233 235 237 236 234 233 230 238 239 242 247 253 256 263 269 273 277 280 281 283 279 274 275 280 277 281 276 277 278 278 277 272 271 264 267 266 255 262 262 267
166 180 202 215 221 224 230 230 229 227 233 238 242 247 252 256 259 266 274 277 278 279 281 279 274 270 274 276 277 275 283 281 285 273 273 272 267 263 263 258 259 258 257
144 147 160 175 188 202 205 215 223 227 234 241 245 250 252 250 250 255 259 266 275 277 271 274 275 277 279 279 277 278 279 280 284 283 274 275 270 266 259 261 260 266 259
140 143 147 159 174 180 183 198 208 219 226 231 232 231 236 239 244 253 257 262 271 273 274 280 281 280 281 282 284 283 284 285 279 279 280 275 272 268 260 258 260 258 258
127 125 126 133 144 149 158 172 179 187 204 205 211 217 225 241 258 264 266 268 274 279 282 281 282 285 286 286 286 283 281 281 280 279 275 274 271 265 261 264 258 255 260
126 123 117 109 99 125 148 157 167 172 188 203 215 245 258 264 268 271 274 279 283 286 288 289 289 289 288 287 286 285 281 277 275 272 272 271 266 258 261 259 255 251 259
125 118 114 122 138 18 178 164 171 190 209 233 248 258 265 272 276 283 288 289 290 292 294 294 294 293 292 290 286 281 279 277 272 271 270 272 266 256 259 262 243 247 256
152 152 154 139 115 266 261 198 195 216 241 254 267 281 290 295 297 297 298 299 298 298 298 298 298 297 296 292 285 278 273 273 272 272 271 270 264 253 255 254 240 246 242
148 145 155 168 203 208 225 219 235 257 276 288 297 305 308 309 309 311 310 311 310 308 308 307 306 304 303 302 296 281 269 270 274 272 270 268 262 253 256 243 235 229 235
152 151 158 171 176 194 213 221 246 278 306 320 320 318 317 319 321 320 321 322 319 317 314 313 310 308 308 307 305 290 283 271 272 268 268 266 255 254 250 243 225 219 221
152 153 161 169 178 183 169 230 299 333 342 338 333 335 341 339 337 334 330 327 324 321 321 324 320 316 316 318 306 297 283 279 274 271 266 260 251 245 243 226 220 212 202
151 153 153 156 152 107 26 307 357 348 349 351 352 350 350 347 343 342 341 340 334 331 336 333 334 327 320 318 312 311 294 282 274 266 264 259 250 245 248 211 203 199 192
152 156 156 151 130 57 345 347 342 358 5 359 354 355 355 355 356 358 355 354 347 343 340 338 337 337 331 331 328 329 323 303 285 282 281 269 255 241 230 195 182 183 184
164 167 178 162 127 312 327 350 19 20 6 3 5 4 360 358 360 1 5 14 21 10 0 352 347 344 343 346 332 334 332 337 315 314 282 285 256 211 208 190 181 183 183
167 171 187 217 242 268 313 326 61 63 57 51 48 45 37 32 36 31 25 20 19 24 22 18 14 6 355 351 341 355 352 352 329 326 337 257 219 206 208 192 171 174 176
186 192 201 212 228 248 200 156 131 112 97 82 76 54 50 50 46 35 29 29 23 19 24 22 19 19 22 17 9 2 354 360 356 321 80 143 138 98 153 174 156 144 148
190 196 204 214 199 186 186 177 152 129 106 87 74 64 54 51 46 40 32 28 26 21 21 32 31 40 39 35 25 21 18 55 68 88 89 97 101 100 112 132 105 127 146